OBJECT CN, 62693

Orbit data source: Space-Track

You're viewing an Uncataloged Satellite

Recently launched and/or uncataloged satellites may have evolving metadata. Metadata may include but not limited to: Owner, Maufacturer, Bus, Motor, and Mission.

OBJECT CN, 62693 is a satellite in SSO that was launched on Tue, 14 Jan 2025 UTC via an FALCON 9 launch vehicle from the Air Force Western Test Range (AFWTR). Unknown objects in Earth's orbit typically refer to objects detected orbiting the Earth but have not yet been identified or cataloged. These objects could be anything from previously untracked satellites, spent rocket stages, debris from satellite collisions, or even natural meteoroids temporarily captured by Earth's gravity.

Loading next visibility...
Identifier
62693, 2025-009CN
Orbit
SSO
Country
Flag of TBDTBD
Related business
None
Manufacturer
Unknown
Mission
Operational Commercial Communications
Bus & Motor
Unknown
Mass
Unknown
Launch date (UTC)
2025-01-14 (10 months ago)
Launch vehicle
FALCON 9
Launch site
Air Force Western Test Range (AFWTR)
Object type
Unknown
Shape & HBR
Box + 2 Pan, 0.1 m
Radar Cross Section
0.014 m², Small (<0.1 m²)

Expand to show TLE details & history
Last TLE update: 4 days ago

TLE from 4 days ago
0 OBJECT CN
1 62693U 25009CN  25309.68627329  .00056820  00000-0  15235-2 0  9993
2 62693  97.4330  31.2306 0001563 274.3700  85.7366 15.37782828102613
Epoch: 2025-11-05T16:28Z
TLE epoch observation values (Epoch: 2025-11-05T16:28:14.012Z)
Latitude
-0.00001°
Longitude
99.01684°
Altitude
455.702 km
Speed
7.639 km/s
True Right ascension
02h 04m 55s
True Declination
0° 00' 00"
Sunlit
Object was in full shadow at epoch
Visualization orbit readout
Latitude
Unknown
Longitude
Unknown
Altitude
Unknown
Speed
Unknown
Apparent Right ascension
Unknown
Apparent Declination
Unknown
Sunlit
N/A
Visualization observer readout
Local Sidereal Time
02:58:26
Azimuth
Unknown
Elevation
Unknown
Doppler factor
Unknown
Orbital elements
Apogee altitude
450.678 km
Perigee altitude
448.543 km
Semi-major axis
6,827.748 km
Eccentricity
0.00016
Inclination
97.433°
RAAN
31.2306°
Arg. of periapsis
274.37°
True anomaly
85.75446°
Mean anomaly
85.7366°
Eccentric anomaly
85.74553°
Mean motion
3.84704 °/min
Orbital period
93.58 mins
BSTAR
0.0015235
Loading maneuver chart data...
Computing Atmospheric mass density...
Loading historical data...
Loading historical data...
Loading historical data...
Loading historical data...
Loading historical data...
Loading historical data...
Loading historical data...

Documentation

Showing up to 5 results
|